• In Belgium
  • List of Countries
  • For 7 days
  • Water Temperature
  • Satellite Maps
  • Weather Map
  • Weather Widgets
  • user-avatar
    Login

    Hourly Weather Batina

    Today, 18 July, Wednesday

    Time Temperature Precipitation Wind Pressure Humidity
    00:00 +29°C° 0 mm 2 mps 674 mmHg 30%
    01:00 +28°C° 0 mm 2 mps 674 mmHg 31%
    02:00 +28°C° 0 mm 2 mps 673 mmHg 32%
    03:00 +28°C° 0 mm 2 mps 673 mmHg 33%
    04:00 +28°C° 0 mm 2 mps 673 mmHg 33%
    05:00 +28°C° 0 mm 2 mps 674 mmHg 33%
    06:00 +29°C° 0 mm 2 mps 674 mmHg 33%
    07:00 +30°C° 0 mm 2 mps 674 mmHg 29%
    08:00 +33°C° 0 mm 3 mps 675 mmHg 25%
    09:00 +35°C° 0 mm 3 mps 675 mmHg 22%
    10:00 +36°C° 0 mm 4 mps 675 mmHg 19%
    11:00 +37°C° 0 mm 5 mps 675 mmHg 17%
    12:00 +40°C° 0 mm 6 mps 676 mmHg 15%
    13:00 +40°C° 0 mm 7 mps 675 mmHg 14%
    14:00 +40°C° 0 mm 7 mps 675 mmHg 13%
    15:00 +41°C° 0 mm 7 mps 674 mmHg 13%
    16:00 +40°C° 0 mm 6 mps 674 mmHg 14%
    17:00 +39°C° 0 mm 5 mps 674 mmHg 14%
    18:00 +38°C° 0 mm 4 mps 674 mmHg 15%
    19:00 +36°C° 0 mm 3 mps 674 mmHg 18%
    20:00 +35°C° 0 mm 2 mps 674 mmHg 20%
    21:00 +34°C° 0 mm 2 mps 674 mmHg 23%
    22:00 +32°C° 0 mm 1 mps 673 mmHg 24%
    23:00 +31°C° 0 mm 1 mps 673 mmHg 26%

    Tomorrow, 19 July, Thursday

    Time Temperature Precipitation Wind Pressure Humidity
    00:00 +31°C° 0 mm 1 mps 673 mmHg 27%
    01:00 +30°C° 0 mm 1 mps 673 mmHg 28%
    02:00 +30°C° 0 mm 1 mps 673 mmHg 28%
    03:00 +29°C° 0 mm 1 mps 673 mmHg 29%
    04:00 +30°C° 0 mm 1 mps 673 mmHg 28%
    05:00 +31°C° 0 mm 1 mps 673 mmHg 27%
    06:00 +31°C° 0 mm 1 mps 674 mmHg 26%
    07:00 +33°C° 0 mm 1 mps 674 mmHg 23%
    08:00 +35°C° 0 mm 2 mps 675 mmHg 20%
    09:00 +37°C° 0 mm 2 mps 675 mmHg 17%
    10:00 +38°C° 0 mm 3 mps 675 mmHg 15%
    11:00 +40°C° 0 mm 4 mps 676 mmHg 13%
    12:00 +41°C° 0 mm 4 mps 676 mmHg 12%
    13:00 +41°C° 0 mm 5 mps 676 mmHg 11%
    14:00 +41°C° 0 mm 5 mps 675 mmHg 11%
    15:00 +42°C° 0 mm 5 mps 675 mmHg 10%
    16:00 +41°C° 0 mm 5 mps 675 mmHg 12%
    17:00 +40°C° 0 mm 5 mps 675 mmHg 14%
    18:00 +39°C° 0 mm 5 mps 675 mmHg 16%
    19:00 +36°C° 0 mm 4 mps 675 mmHg 18%
    20:00 +35°C° 0 mm 3 mps 675 mmHg 20%
    21:00 +34°C° 0 mm 2 mps 675 mmHg 23%
    22:00 +32°C° 0 mm 2 mps 675 mmHg 24%
    23:00 +32°C° 0 mm 2 mps 674 mmHg 24%

    Day after tomorrow, 20 July, Friday

    Time Temperature Precipitation Wind Pressure Humidity
    00:00 +32°C° 0 mm 2 mps 674 mmHg 25%
    01:00 +31°C° 0 mm 1 mps 674 mmHg 25%
    02:00 +31°C° 0 mm 1 mps 674 mmHg 25%
    03:00 +31°C° 0 mm 1 mps 673 mmHg 26%
    04:00 +31°C° 0 mm 1 mps 673 mmHg 25%
    05:00 +31°C° 0 mm 1 mps 674 mmHg 24%
    06:00 +32°C° 0 mm 1 mps 674 mmHg 23%
    07:00 +34°C° 0 mm 2 mps 674 mmHg 21%
    08:00 +36°C° 0 mm 3 mps 675 mmHg 18%
    09:00 +37°C° 0 mm 3 mps 675 mmHg 16%
    10:00 +38°C° 0 mm 4 mps 675 mmHg 15%
    11:00 +40°C° 0 mm 4 mps 675 mmHg 14%
    12:00 +41°C° 0 mm 5 mps 675 mmHg 14%
    13:00 +41°C° 0 mm 4 mps 675 mmHg 13%
    14:00 +41°C° 0 mm 4 mps 675 mmHg 13%
    15:00 +41°C° 0 mm 4 mps 674 mmHg 13%
    16:00 +40°C° 0 mm 4 mps 674 mmHg 14%
    17:00 +40°C° 0 mm 4 mps 674 mmHg 15%
    18:00 +38°C° 0 mm 4 mps 674 mmHg 16%
    19:00 +37°C° 0.3 mm 4 mps 674 mmHg 19%
    20:00 +35°C° 0.3 mm 5 mps 674 mmHg 22%
    21:00 +34°C° 0.3 mm 5 mps 674 mmHg 25%
    22:00 +33°C° 0 mm 4 mps 674 mmHg 27%
    23:00 +32°C° 0 mm 4 mps 673 mmHg 28%

    21 July, Saturday

    Time Temperature Precipitation Wind Pressure Humidity
    00:00 +31°C° 0 mm 3 mps 673 mmHg 29%
    01:00 +30°C° 0 mm 3 mps 673 mmHg 29%
    02:00 +30°C° 0 mm 3 mps 672 mmHg 30%
    03:00 +29°C° 0 mm 3 mps 672 mmHg 31%
    04:00 +30°C° 0 mm 3 mps 672 mmHg 29%
    05:00 +30°C° 0 mm 3 mps 672 mmHg 28%
    06:00 +32°C° 0 mm 4 mps 673 mmHg 27%
    07:00 +34°C° 0 mm 6 mps 673 mmHg 23%
    08:00 +35°C° 0 mm 9 mps 674 mmHg 19%
    09:00 +38°C° 0 mm 11 mps 675 mmHg 15%
    10:00 +39°C° 0 mm 11 mps 675 mmHg 14%
    11:00 +40°C° 0 mm 10 mps 675 mmHg 13%
    12:00 +42°C° 0 mm 10 mps 675 mmHg 11%
    13:00 +42°C° 0 mm 9 mps 674 mmHg 11%
    14:00 +42°C° 0 mm 9 mps 674 mmHg 11%
    15:00 +41°C° 0 mm 8 mps 674 mmHg 11%
    16:00 +41°C° 0 mm 7 mps 673 mmHg 11%
    17:00 +41°C° 0 mm 6 mps 673 mmHg 11%
    18:00 +40°C° 0 mm 5 mps 673 mmHg 11%
    19:00 +38°C° 0 mm 4 mps 673 mmHg 14%
    20:00 +36°C° 0 mm 3 mps 673 mmHg 17%
    21:00 +35°C° 0 mm 2 mps 673 mmHg 20%
    22:00 +34°C° 0 mm 2 mps 673 mmHg 24%
    23:00 +32°C° 0 mm 2 mps 673 mmHg 27%

    22 July, Sunday

    Time Temperature Precipitation Wind Pressure Humidity
    00:00 +31°C° 0 mm 3 mps 672 mmHg 30%
    01:00 +30°C° 0 mm 3 mps 672 mmHg 34%
    02:00 +29°C° 0 mm 3 mps 671 mmHg 37%
    03:00 +28°C° 0 mm 3 mps 671 mmHg 40%
    04:00 +28°C° 0 mm 3 mps 671 mmHg 40%
    05:00 +28°C° 0 mm 3 mps 671 mmHg 40%
    06:00 +28°C° 0 mm 3 mps 671 mmHg 40%
    07:00 +29°C° 0 mm 3 mps 672 mmHg 36%
    08:00 +30°C° 0 mm 3 mps 672 mmHg 32%
    09:00 +33°C° 0 mm 3 mps 672 mmHg 27%
    10:00 +34°C° 0 mm 3 mps 672 mmHg 26%
    11:00 +35°C° 0 mm 4 mps 672 mmHg 24%
    12:00 +36°C° 0 mm 4 mps 673 mmHg 22%
    13:00 +36°C° 0 mm 4 mps 672 mmHg 22%
    14:00 +36°C° 0 mm 5 mps 672 mmHg 22%
    15:00 +36°C° 0 mm 5 mps 672 mmHg 23%
    16:00 +35°C° 0 mm 5 mps 672 mmHg 24%
    17:00 +34°C° 0 mm 5 mps 672 mmHg 26%
    18:00 +33°C° 0 mm 4 mps 672 mmHg 27%
    19:00 +32°C° 0.1 mm 4 mps 672 mmHg 32%
    20:00 +29°C° 0.1 mm 4 mps 672 mmHg 36%
    21:00 +28°C° 0.1 mm 4 mps 672 mmHg 41%
    22:00 +27°C° 0 mm 3 mps 672 mmHg 43%
    23:00 +27°C° 0 mm 3 mps 672 mmHg 46%

    23 July, Monday

    Time Temperature Precipitation Wind Pressure Humidity
    00:00 +26°C° 0 mm 2 mps 672 mmHg 49%
    01:00 +26°C° 0 mm 2 mps 672 mmHg 50%
    02:00 +25°C° 0 mm 2 mps 671 mmHg 52%
    03:00 +25°C° 0 mm 1 mps 671 mmHg 53%
    04:00 +25°C° 0 mm 1 mps 671 mmHg 52%
    05:00 +25°C° 0 mm 1 mps 671 mmHg 52%
    06:00 +25°C° 0 mm 1 mps 671 mmHg 51%
    07:00 +26°C° 0 mm 1 mps 672 mmHg 45%
    08:00 +28°C° 0 mm 2 mps 672 mmHg 38%
    09:00 +29°C° 0 mm 2 mps 673 mmHg 32%
    10:00 +30°C° 0 mm 3 mps 673 mmHg 28%
    11:00 +33°C° 0 mm 3 mps 673 mmHg 23%
    12:00 +34°C° 0 mm 4 mps 673 mmHg 19%
    13:00 +35°C° 0 mm 5 mps 672 mmHg 18%
    14:00 +36°C° 0 mm 5 mps 672 mmHg 16%
    15:00 +36°C° 0 mm 6 mps 672 mmHg 15%
    16:00 +35°C° 0 mm 6 mps 672 mmHg 17%
    17:00 +35°C° 0 mm 6 mps 672 mmHg 19%
    18:00 +34°C° 0 mm 6 mps 672 mmHg 21%
    19:00 +32°C° 0 mm 5 mps 672 mmHg 25%
    20:00 +30°C° 0 mm 4 mps 672 mmHg 29%
    21:00 +29°C° 0 mm 2 mps 672 mmHg 32%
    22:00 +28°C° 0 mm 2 mps 671 mmHg 34%
    23:00 +27°C° 0 mm 1 mps 671 mmHg 36%
    Show more